[[{"header":{"parameterUnit":"m.s-1","parameterCategory":1,"la1":30.2991,"la2":30.254,"lo1":-89.0895,"lo2":-89.0444,"dy":0.0017,"dx":0.0017,"nx":28,"ny":28,"refTime":"2025-07-17T09:00:00:Z","depth":0,"parameterNumber":2,"parameterNumberName":"U-component_of_WINDS"},"data":[0,0,0,0,0,0,0,0,0,0,0,0,0,0,0,0,0,0,0,0,0,0,0,0,0,0,0,0,0,0,0,0,0,0,0,0,0,0,0,0,0,0,0,0,0,0,0,0,0,0,0,0,0,0,0,0,0,0,2.4526,2.4526,0,2.4538,2.4538,2.4538,2.4486,2.4484,2.4483,2.4481,2.4492,2.4494,2.4496,0,0,0,0,0,0,0,0,0,0,0,0,0,2.4454,2.4456,2.4526,2.4526,2.4526,2.4538,2.4538,2.4538,2.4486,2.4484,2.4482,2.4481,2.4492,2.4494,2.4496,0,0,0,0,0,0,0,0,0,0,0,0,0,2.4478,2.4457,2.4526,2.4502,2.45,2.4538,2.4538,2.4538,2.4486,2.4484,2.4482,2.448,2.4491,2.4494,2.4496,2.4558,0,0,2.4504,2.4505,0,0,0,0,0,0,0,0,2.4477,2.4481,2.4505,2.4503,2.4501,2.4508,2.4517,2.4545,2.4487,2.4491,2.4481,2.4479,2.4499,2.4501,2.4508,2.4558,2.4559,2.4504,2.4506,2.4507,2.4508,0,0,0,0,0,0,0,2.4475,2.448,2.4531,2.4506,2.4503,2.4489,2.449,2.4522,2.4508,2.4491,2.4487,2.4489,2.4498,2.4506,2.4508,2.4559,2.4504,2.4506,2.4508,2.4509,2.4656,2.4658,0,0,0,0,0,0,2.4477,2.4479,2.453,2.4531,2.4483,2.4492,2.4493,2.4508,2.4508,2.4505,2.4491,2.4487,2.4503,2.4505,2.4508,2.4577,2.4507,2.4509,2.4511,2.4654,2.4656,2.4659,0,0,0,0,0,0,2.4476,2.4482,2.453,2.4504,2.4509,2.4496,2.4513,2.451,2.4518,2.4508,2.4505,2.4502,2.4501,2.4505,2.4545,2.4577,2.451,2.4513,2.4651,2.4654,2.4658,2.4718,0,0,0,0,0,0,2.4474,2.4482,2.4506,2.4505,2.4511,2.4568,2.4515,2.4512,2.4522,2.4517,2.4517,2.4515,2.4499,2.4541,2.4548,2.4579,2.4515,2.4648,2.4652,2.4657,2.4713,2.4723,2.4731,0,0,0,0,0,2.4472,2.4524,2.4508,2.4515,2.4541,2.457,2.4573,2.4554,2.4525,2.4549,2.4542,2.4515,2.4573,2.4546,2.4553,2.4585,2.4646,2.4651,2.4656,2.4709,2.4721,2.4731,0,0,0,0,0,0,2.453,2.4523,2.4506,2.4559,2.4565,2.4561,2.459,2.4568,2.4582,2.4576,2.4552,2.4552,2.4596,2.4595,2.4565,2.4643,2.4604,2.4611,2.4642,2.4653,2.4663,2.466,2.4517,0,0,0,0,0,2.4549,2.4573,2.4566,2.4614,2.4618,2.4603,2.4615,2.46,2.4605,2.4607,2.4604,2.4609,2.4628,2.4641,2.4658,2.4713,2.471,2.4739,2.4748,2.4756,2.4761,2.4786,2.4797,2.4676,2.4676,2.4676,0,0,2.4588,2.4588,2.4605,2.4625,2.4628,2.4652,2.4606,2.4635,2.4652,2.4612,2.4648,2.4646,2.465,2.4697,2.4718,2.4698,2.4794,2.4763,2.4769,2.477,2.4793,2.4804,2.4814,2.468,2.4679,2.4679,0,0,2.4672,2.4676,2.4713,2.4717,2.4722,2.4711,2.472,2.4719,2.4715,2.4752,2.4721,2.4741,2.4776,2.4778,2.4785,2.4867,2.4841,2.4873,2.4921,2.4945,2.4955,2.4963,2.4989,2.4999,2.4879,2.4879,2.4879,0,2.472,2.4756,2.4736,2.4765,2.4773,2.4738,2.4775,2.4779,2.479,2.4795,2.4774,2.4813,2.4814,2.4859,2.4878,2.4886,2.4893,2.4872,2.4955,2.4963,2.4971,2.4995,2.5005,2.4883,2.4882,2.4882,2.4882,0,2.4813,2.4838,2.4868,2.4878,2.489,2.4923,2.4906,2.4921,2.4904,2.4895,2.4931,2.4931,2.4945,2.4956,2.494,2.4998,2.4984,2.496,2.4919,2.4986,2.5008,2.5017,2.4888,2.4886,2.4885,2.4884,0,0,2.4933,2.4929,2.494,2.4942,2.4944,2.4963,2.4993,2.5007,2.5018,2.5027,2.5049,2.5078,2.5054,2.5061,2.5045,2.5067,2.5127,2.5039,2.5039,2.5052,2.5186,2.5203,2.5214,2.5112,2.5114,2.5115,2.5185,0,2.5012,2.5064,2.5045,2.5097,2.5118,2.5084,2.511,2.5113,2.5105,2.5121,2.5113,2.5132,2.5101,2.5104,2.5124,2.5116,2.5153,2.5111,2.513,2.5131,2.5127,2.5226,2.5244,2.531,2.5193,2.5195,2.5196,0,2.5111,2.5121,2.5175,2.5169,2.5177,2.5201,2.521,2.5227,2.5229,2.5222,2.5228,2.5207,2.5235,2.5197,2.5232,2.5204,2.5211,2.5208,2.521,2.5208,2.5166,2.5224,2.5331,2.5339,2.521,2.5209,2.5208,0,2.5188,2.5216,2.525,2.5254,2.525,2.5266,2.5265,2.5265,2.5273,2.5282,2.5286,2.5298,2.5304,2.5313,2.5295,2.527,2.5332,2.5293,2.5324,2.5325,2.5337,2.5336,2.5443,2.5347,2.5347,2.5347,2.5347,0,2.5276,2.531,2.5284,2.5306,2.5341,2.5319,2.5354,2.5349,2.5349,2.5367,2.5339,2.5357,2.5333,2.5348,2.5334,2.5364,2.5368,2.5361,2.5356,2.5361,2.5362,2.5363,2.5357,2.535,2.5349,2.5349,2.5348,0,2.5368,2.5353,2.5387,2.538,2.5378,2.5405,2.5397,2.5415,2.5406,2.5429,2.5433,2.5417,2.5433,2.5416,2.5432,2.5422,2.5461,2.5452,2.546,2.5456,2.5487,2.5483,2.5596,2.5608,2.5508,2.5509,2.551,0,2.5423,2.5448,2.5442,2.5451,2.5452,2.5469,2.5476,2.5455,2.5464,2.5466,2.5483,2.5497,2.5506,2.5532,2.5522,2.5532,2.5521,2.556,2.5522,2.5525,2.5517,2.5514,2.5515,2.5566,2.5567,2.5568,2.5569,0,2.5522,2.5512,2.5525,2.5534,2.5544,2.555,2.5554,2.5564,2.5541,2.5553,2.5568,2.5575,2.5589,2.5602,2.5609,2.5607,2.5583,2.5582,2.5588,2.5593,2.5595,2.559,2.5477,2.5578,2.5577,2.5577,2.5576,2.5576,2.5594,2.5613,2.561,2.5624,2.5625,2.5629,2.5644,2.5636,2.5648,2.5657,2.5644,2.5662,2.566,2.5667,2.5667,2.568,2.5664,2.5675,2.5677,2.5679,2.5682,2.5596,2.5682,2.5682,2.5682,2.5681,2.5681,0,2.5688,2.5684,2.5697,2.5703,2.5713,2.5691,2.5694,2.5703,2.5719,2.572,2.5729,2.5745,2.5756,2.5746,2.5755,2.5767,2.5756,2.577,2.5767,2.5766,2.5698,2.569,2.5778,2.5778,2.5778,2.5778,2.5778,2.5778,2.5738,2.5766,2.5757,2.5784,2.5781,2.5797,2.58,2.5803,2.5802,2.5821,2.583,2.5824,2.5819,2.5827,2.5836,2.5832,2.5835,2.5852,2.5845,2.5781,2.5771,2.5762,2.5753,2.5854,2.5854,2.591,2.5911,2.5911]},{"header":{"parameterUnit":"m.s-1","parameterCategory":1,"la1":30.2991,"la2":30.254,"lo1":-89.0895,"lo2":-89.0444,"dy":0.0017,"dx":0.0017,"nx":28,"ny":28,"refTime":"2025-07-17T09:00:00:Z","depth":0,"parameterNumber":3,"parameterNumberName":"V-component_of_WINDS"},"data":[0,0,0,0,0,0,0,0,0,0,0,0,0,0,0,0,0,0,0,0,0,0,0,0,0,0,0,0,0,0,0,0,0,0,0,0,0,0,0,0,0,0,0,0,0,0,0,0,0,0,0,0,0,0,0,0,0,0,3.5659,3.5661,0,3.5855,3.5857,3.5859,3.5867,3.5865,3.5862,3.586,3.6058,3.6065,3.6072,0,0,0,0,0,0,0,0,0,0,0,0,0,3.5288,3.5295,3.5659,3.5661,3.5664,3.5854,3.5857,3.586,3.5867,3.5865,3.5862,3.5859,3.6055,3.6064,3.6073,0,0,0,0,0,0,0,0,0,0,0,0,0,3.5463,3.5297,3.5659,3.5691,3.5696,3.5854,3.5857,3.586,3.5868,3.5865,3.5861,3.5858,3.6052,3.6063,3.6074,3.6212,0,0,3.6108,3.6113,0,0,0,0,0,0,0,0,3.5453,3.5476,3.5684,3.5689,3.5695,3.5833,3.5798,3.5978,3.5869,3.5803,3.586,3.5856,3.5985,3.6002,3.6046,3.6221,3.623,3.6109,3.6116,3.612,3.6124,0,0,0,0,0,0,0,3.5441,3.5468,3.5736,3.5687,3.5693,3.5694,3.5715,3.5832,3.5911,3.5808,3.5809,3.5832,3.5988,3.6035,3.6051,3.6233,3.6109,3.6119,3.6125,3.613,3.6527,3.6531,0,0,0,0,0,0,3.5423,3.5458,3.573,3.5742,3.5563,3.5703,3.5727,3.5792,3.591,3.5924,3.5835,3.5832,3.6018,3.6038,3.6058,3.6225,3.612,3.6131,3.6137,3.6524,3.6528,3.6533,0,0,0,0,0,0,3.5415,3.5447,3.5722,3.56,3.5635,3.5714,3.5787,3.5798,3.5845,3.593,3.5944,3.587,3.6016,3.6042,3.6173,3.6232,3.6136,3.6146,3.6519,3.6525,3.653,3.6562,0,0,0,0,0,0,3.5404,3.5444,3.5499,3.5602,3.5642,3.5836,3.579,3.5804,3.5865,3.5863,3.5966,3.598,3.6015,3.6156,3.6184,3.6246,3.6155,3.6514,3.6522,3.6529,3.6556,3.6568,3.6579,0,0,0,0,0,3.5391,3.55,3.5501,3.5534,3.5712,3.5839,3.5862,3.5902,3.587,3.5924,3.5978,3.5977,3.6221,3.617,3.6201,3.6267,3.651,3.652,3.6528,3.6551,3.6566,3.6578,0,0,0,0,0,0,3.5402,3.5514,3.5517,3.5663,3.5742,3.5841,3.5911,3.5917,3.6005,3.5999,3.6043,3.6067,3.6196,3.6245,3.6185,3.6405,3.6362,3.6377,3.6369,3.6383,3.6394,3.638,3.6164,0,0,0,0,0,3.5421,3.5517,3.5609,3.5729,3.5768,3.5833,3.589,3.5913,3.5996,3.6029,3.6092,3.6172,3.6266,3.6328,3.6419,3.6563,3.6584,3.6623,3.6634,3.6643,3.6656,3.6732,3.675,3.6561,3.6561,3.6561,0,0,3.5462,3.5535,3.5593,3.5733,3.5796,3.5892,3.5861,3.5964,3.6035,3.6044,3.6172,3.6221,3.6312,3.6449,3.6513,3.6493,3.6713,3.6654,3.6661,3.6669,3.6743,3.6761,3.6777,3.6567,3.6566,3.6565,0,0,3.5586,3.5652,3.5758,3.5822,3.5918,3.596,3.5985,3.6083,3.6116,3.6245,3.6253,3.6337,3.65,3.6563,3.6617,3.6762,3.6763,3.679,3.6849,3.6923,3.6938,3.6951,3.7001,3.7018,3.6802,3.6803,3.6803,0,3.5625,3.5771,3.5811,3.5914,3.5974,3.5987,3.6093,3.6153,3.6274,3.6314,3.6291,3.6493,3.6556,3.6707,3.6742,3.6786,3.6814,3.6779,3.6933,3.6947,3.696,3.7007,3.7026,3.6805,3.6805,3.6805,3.6804,0,3.5812,3.5913,3.5987,3.6104,3.6172,3.6276,3.633,3.6394,3.641,3.6454,3.6583,3.6658,3.6764,3.6801,3.6819,3.6954,3.6939,3.6924,3.6881,3.698,3.7025,3.7044,3.6809,3.6808,3.6807,3.6807,0,0,3.595,3.6086,3.6112,3.6164,3.6271,3.6349,3.6451,3.6556,3.6608,3.6691,3.6777,3.6913,3.6899,3.696,3.6984,3.7049,3.7156,3.7026,3.7029,3.7046,3.7306,3.7316,3.7337,3.7157,3.7161,3.7164,3.7298,0,3.6084,3.627,3.6307,3.6467,3.6559,3.6571,3.666,3.6734,3.6776,3.6859,3.6906,3.7,3.6976,3.7012,3.7077,3.7129,3.7208,3.712,3.7236,3.7239,3.7212,3.7361,3.7373,3.7496,3.7316,3.7319,3.7322,0,3.6266,3.6353,3.6521,3.6613,3.6653,3.6733,3.6829,3.6909,3.6992,3.7018,3.7084,3.7101,3.7206,3.7159,3.7303,3.7242,3.7291,3.7323,3.7328,3.734,3.7286,3.7375,3.7536,3.7554,3.735,3.7348,3.7346,0,3.6347,3.6506,3.6627,3.6671,3.6781,3.6836,3.6885,3.6964,3.7023,3.7107,3.7145,3.724,3.7292,3.7364,3.7404,3.7366,3.7544,3.7501,3.7567,3.7566,3.7604,3.7601,3.7774,3.7638,3.7637,3.7637,3.7637,0,3.6493,3.6595,3.6664,3.6738,3.6852,3.6893,3.7004,3.7052,3.7122,3.7203,3.7219,3.7295,3.7345,3.7428,3.746,3.7573,3.7596,3.7619,3.7626,3.7617,3.7614,3.765,3.7642,3.7642,3.7641,3.764,3.7639,0,3.6603,3.6654,3.6785,3.6878,3.6904,3.6983,3.7062,3.7133,3.7175,3.7278,3.7305,3.737,3.7468,3.7515,3.7637,3.7658,3.7785,3.7788,3.7758,3.776,3.7823,3.7816,3.8025,3.8053,3.7899,3.79,3.7901,0,3.6692,3.677,3.6871,3.6927,3.6977,3.7068,3.7128,3.717,3.7231,3.733,3.7388,3.7487,3.7568,3.7723,3.778,3.7872,3.7876,3.7943,3.789,3.7878,3.7875,3.7869,3.7876,3.7952,3.7953,3.7955,3.7956,0,3.6843,3.6864,3.6951,3.7045,3.7116,3.7193,3.7268,3.7313,3.7367,3.7435,3.7535,3.7598,3.7721,3.7818,3.7913,3.7961,3.7967,3.7972,3.7991,3.7983,3.7961,3.7972,3.7782,3.7967,3.7966,3.7965,3.7964,3.7964,3.6945,3.7014,3.7095,3.719,3.7251,3.732,3.7391,3.7441,3.7526,3.763,3.7649,3.7755,3.7832,3.7961,3.8012,3.8094,3.8079,3.8108,3.8115,3.8122,3.8124,3.7949,3.8111,3.8111,3.8111,3.8111,3.8111,0,3.7096,3.7148,3.7235,3.7339,3.7413,3.7413,3.7495,3.7556,3.7649,3.7722,3.7801,3.7914,3.8007,3.8071,3.8165,3.8218,3.8223,3.8241,3.8237,3.8247,3.8133,3.8106,3.8235,3.8235,3.8235,3.8235,3.8235,3.8235,3.7183,3.73,3.733,3.7476,3.7527,3.7631,3.7678,3.7741,3.7798,3.7924,3.8002,3.8043,3.8111,3.8209,3.8294,3.831,3.8343,3.8361,3.8377,3.8269,3.8256,3.8243,3.8218,3.8369,3.8369,3.8484,3.8485,3.8486]}]]